TimeEDT,TemperatureF,Dew PointF,Humidity,Sea Level PressureIn,VisibilityMPH,Wind Direction,Wind SpeedMPH,Gust SpeedMPH,PrecipitationIn,Events,Conditions,WindDirDegrees,DateUTC
12:15 AM,66.2,66.2,100,30.13,7.0,NE,4.6,-,N/A,,Overcast,40,2013-05-01 04:15:00
12:35 AM,66.2,64.4,94,30.14,10.0,NE,4.6,-,N/A,,Mostly Cloudy,50,2013-05-01 04:35:00
12:55 AM,64.4,64.4,100,30.14,7.0,NE,4.6,-,N/A,,Clear,40,2013-05-01 04:55:00
1:15 AM,64.4,62.6,94,30.14,10.0,Calm,Calm,-,N/A,,Clear,0,2013-05-01 05:15:00
1:35 AM,62.6,62.6,100,30.13,7.0,Calm,Calm,-,N/A,,Scattered Clouds,0,2013-05-01 05:35:00
1:55 AM,62.6,62.6,100,30.13,7.0,Calm,Calm,-,N/A,,Scattered Clouds,0,2013-05-01 05:55:00
2:35 AM,60.8,55.4,82,30.12,7.0,NNE,4.6,-,N/A,,Clear,20,2013-05-01 06:35:00
2:55 AM,60.8,59.0,94,30.11,7.0,NNE,4.6,-,N/A,,Clear,20,2013-05-01 06:55:00
3:15 AM,60.8,55.4,82,30.11,7.0,NNE,4.6,-,N/A,,Clear,20,2013-05-01 07:15:00
3:35 AM,60.8,53.6,77,30.11,7.0,NNE,4.6,-,N/A,,Clear,30,2013-05-01 07:35:00
3:55 AM,60.8,53.6,77,30.11,7.0,NNE,3.5,-,N/A,,Clear,20,2013-05-01 07:55:00
4:15 AM,60.8,51.8,72,30.11,7.0,NNE,5.8,-,N/A,,Clear,20,2013-05-01 08:15:00
4:35 AM,60.8,50.0,68,30.11,7.0,North,4.6,-,N/A,,Clear,10,2013-05-01 08:35:00
4:55 AM,59.0,44.6,59,30.12,7.0,NNE,5.8,-,N/A,,Clear,20,2013-05-01 08:55:00
5:15 AM,59.0,44.6,59,30.12,7.0,North,5.8,-,N/A,,Clear,10,2013-05-01 09:15:00
5:35 AM,59.0,46.4,63,30.13,7.0,NNE,3.5,-,N/A,,Clear,20,2013-05-01 09:35:00
5:55 AM,59.0,48.2,67,30.13,7.0,North,6.9,-,N/A,,Clear,10,2013-05-01 09:55:00
6:15 AM,59.0,46.4,63,30.13,7.0,NNE,6.9,-,N/A,,Clear,20,2013-05-01 10:15:00
6:35 AM,59.0,53.6,82,30.13,7.0,NNE,4.6,-,N/A,,Clear,20,2013-05-01 10:35:00
6:55 AM,59.0,51.8,77,30.14,7.0,NNE,10.4,-,N/A,,Scattered Clouds,20,2013-05-01 10:55:00
7:15 AM,59.0,53.6,82,30.14,7.0,NNE,5.8,-,N/A,,Overcast,30,2013-05-01 11:15:00
7:35 AM,59.0,53.6,82,30.15,7.0,NNE,6.9,-,N/A,,Overcast,30,2013-05-01 11:35:00
7:55 AM,59.0,53.6,82,30.16,7.0,NNE,9.2,-,N/A,,Overcast,30,2013-05-01 11:55:00
8:15 AM,59.0,53.6,82,30.17,7.0,NNE,8.1,-,N/A,,Overcast,30,2013-05-01 12:15:00
8:35 AM,59.0,53.6,82,30.18,7.0,NNE,6.9,-,N/A,,Overcast,30,2013-05-01 12:35:00
8:55 AM,60.8,53.6,77,30.19,10.0,NNE,3.5,-,N/A,,Overcast,30,2013-05-01 12:55:00
9:15 AM,60.8,53.6,77,30.19,10.0,NNE,6.9,-,N/A,,Overcast,20,2013-05-01 13:15:00
9:35 AM,60.8,53.6,77,30.19,10.0,NE,6.9,-,N/A,,Overcast,40,2013-05-01 13:35:00
9:55 AM,60.8,53.6,77,30.19,10.0,NNE,6.9,-,N/A,,Overcast,30,2013-05-01 13:55:00
10:15 AM,62.6,53.6,72,30.20,10.0,NE,4.6,-,N/A,,Overcast,50,2013-05-01 14:15:00
10:35 AM,62.6,55.4,77,30.20,10.0,North,6.9,-,N/A,,Overcast,10,2013-05-01 14:35:00
10:55 AM,64.4,53.6,68,30.21,10.0,NNE,9.2,-,N/A,,Overcast,30,2013-05-01 14:55:00
11:15 AM,66.2,55.4,68,30.21,10.0,NNE,4.6,-,N/A,,Overcast,20,2013-05-01 15:15:00
11:35 AM,68.0,53.6,60,30.20,10.0,NE,9.2,-,N/A,,Overcast,50,2013-05-01 15:35:00
11:55 AM,68.0,50.0,52,30.19,10.0,NNE,10.4,-,N/A,,Overcast,20,2013-05-01 15:55:00
12:15 PM,68.0,50.0,52,30.18,10.0,NE,8.1,18.4,N/A,,Overcast,40,2013-05-01 16:15:00
12:35 PM,68.0,50.0,52,30.17,10.0,NNE,10.4,16.1,N/A,,Overcast,30,2013-05-01 16:35:00
12:55 PM,69.8,14.0,12,30.18,10.0,NNE,8.1,-,N/A,,Overcast,30,2013-05-01 16:55:00
1:15 PM,68.0,55.4,64,30.18,10.0,NNE,9.2,-,N/A,,Overcast,20,2013-05-01 17:15:00
1:35 PM,69.8,55.4,60,30.18,10.0,NNE,6.9,-,N/A,,Overcast,20,2013-05-01 17:35:00
1:55 PM,69.8,57.2,64,30.19,10.0,NE,3.5,-,N/A,,Overcast,40,2013-05-01 17:55:00
2:15 PM,71.6,55.4,57,30.19,10.0,North,5.8,-,N/A,,Overcast,10,2013-05-01 18:15:00
2:35 PM,71.6,23.0,16,30.18,10.0,NE,8.1,-,N/A,,Overcast,50,2013-05-01 18:35:00
2:55 PM,71.6,57.2,60,30.17,10.0,NE,6.9,-,N/A,,Overcast,40,2013-05-01 18:55:00
3:15 PM,71.6,55.4,57,30.17,10.0,NNE,5.8,-,N/A,,Overcast,30,2013-05-01 19:15:00
3:35 PM,71.6,57.2,60,30.17,10.0,ENE,8.1,-,N/A,,Overcast,60,2013-05-01 19:35:00
3:55 PM,71.6,55.4,57,30.17,10.0,NE,8.1,-,N/A,,Overcast,40,2013-05-01 19:55:00
4:15 PM,71.6,57.2,60,30.16,10.0,NE,6.9,-,N/A,,Overcast,50,2013-05-01 20:15:00
4:35 PM,69.8,57.2,64,30.16,10.0,NE,5.8,-,N/A,,Overcast,40,2013-05-01 20:35:00
4:55 PM,71.6,57.2,60,30.16,10.0,NE,4.6,-,N/A,,Overcast,40,2013-05-01 20:55:00
5:15 PM,71.6,57.2,60,30.16,10.0,NNE,5.8,-,N/A,,Overcast,30,2013-05-01 21:15:00
5:35 PM,69.8,57.2,64,30.16,10.0,NE,5.8,-,N/A,,Mostly Cloudy,40,2013-05-01 21:35:00
5:55 PM,71.6,57.2,60,30.16,10.0,NNE,6.9,-,N/A,,Scattered Clouds,30,2013-05-01 21:55:00
6:15 PM,71.6,55.4,57,30.15,10.0,NNE,3.5,-,N/A,,Clear,30,2013-05-01 22:15:00
6:35 PM,69.8,55.4,60,30.15,10.0,NNE,5.8,-,N/A,,Clear,30,2013-05-01 22:35:00
6:55 PM,69.8,55.4,60,30.15,10.0,NNE,4.6,-,N/A,,Clear,20,2013-05-01 22:55:00
7:15 PM,69.8,57.2,64,30.15,10.0,North,6.9,-,N/A,,Mostly Cloudy,10,2013-05-01 23:15:00
7:35 PM,68.0,55.4,64,30.15,10.0,NNE,5.8,-,N/A,,Scattered Clouds,20,2013-05-01 23:35:00
7:55 PM,68.0,55.4,64,30.16,10.0,North,5.8,-,N/A,,Mostly Cloudy,10,2013-05-01 23:55:00
8:15 PM,68.0,55.4,64,30.17,10.0,North,6.9,-,N/A,,Overcast,10,2013-05-02 00:15:00
8:35 PM,68.0,55.4,64,30.18,10.0,NNE,4.6,-,N/A,,Overcast,20,2013-05-02 00:35:00
8:55 PM,66.2,57.2,73,30.19,10.0,NNE,3.5,-,N/A,,Overcast,30,2013-05-02 00:55:00
9:15 PM,66.2,59.0,78,30.19,10.0,NNE,4.6,-,N/A,,Overcast,30,2013-05-02 01:15:00
9:35 PM,66.2,59.0,78,30.20,7.0,NE,5.8,-,N/A,,Overcast,40,2013-05-02 01:35:00
9:55 PM,64.4,62.6,94,30.21,7.0,NE,6.9,-,N/A,,Overcast,40,2013-05-02 01:55:00
10:15 PM,64.4,62.6,94,30.21,10.0,NNE,6.9,-,N/A,,Overcast,30,2013-05-02 02:15:00
10:35 PM,64.4,62.6,94,30.21,10.0,NNE,5.8,-,N/A,,Overcast,30,2013-05-02 02:35:00
10:55 PM,64.4,62.6,94,30.21,10.0,NNE,6.9,-,N/A,,Overcast,20,2013-05-02 02:55:00
11:15 PM,64.4,62.6,94,30.20,10.0,NNE,4.6,-,N/A,,Mostly Cloudy,20,2013-05-02 03:15:00
11:35 PM,64.4,62.6,94,30.20,10.0,NNE,4.6,-,N/A,,Mostly Cloudy,20,2013-05-02 03:35:00
11:55 PM,64.4,60.8,88,30.21,10.0,NNE,4.6,-,N/A,,Mostly Cloudy,30,2013-05-02 03:55:00